![]() |
EMODnet Physics ERDDAP
Easier access to scientific data |
log in|
Brought to you by EMODnet Physics |
| Dataset Title: | NDBC - Collection of dew point temperature (DEWT) TimeSeries - IN SITU MultiPointTimeSeriesObservation
|
| Institution: | NDBC (Dataset ID: TS_DEWT_NDBC) |
| Information: | Summary
| License
| FGDC
| ISO 19115
| Metadata
| Background
| Subset
| Data Access Form
| Make a graph
|
| Name | Last modified | Size | Description | |
|---|---|---|---|---|
| Parent Directory | - | - | ||
| SPTM4_TS_DEWT_012011.nc | 27-Oct-2024 21:48 | 429474 | ||
| SPTM4_TS_DEWT_012012.nc | 27-Oct-2024 21:48 | 429445 | ||
| SPTM4_TS_DEWT_012013.nc | 27-Oct-2024 21:48 | 439581 | ||
| SPTM4_TS_DEWT_012014.nc | 27-Oct-2024 21:48 | 439652 | ||
| SPTM4_TS_DEWT_012015.nc | 27-Oct-2024 21:48 | 440133 | ||
| SPTM4_TS_DEWT_022011.nc | 27-Oct-2024 21:48 | 440083 | ||
| SPTM4_TS_DEWT_022012.nc | 27-Oct-2024 21:48 | 439902 | ||
| SPTM4_TS_DEWT_022013.nc | 27-Oct-2024 21:48 | 440175 | ||
| SPTM4_TS_DEWT_022014.nc | 27-Oct-2024 21:48 | 440109 | ||
| SPTM4_TS_DEWT_022015.nc | 27-Oct-2024 21:48 | 440055 | ||
| SPTM4_TS_DEWT_022024.nc | 16-Sep-2024 16:51 | 440160 | ||
| SPTM4_TS_DEWT_032010.nc | 27-Oct-2024 21:48 | 440147 | ||
| SPTM4_TS_DEWT_032011.nc | 27-Oct-2024 21:48 | 440047 | ||
| SPTM4_TS_DEWT_032012.nc | 27-Oct-2024 21:48 | 440125 | ||
| SPTM4_TS_DEWT_032013.nc | 27-Oct-2024 21:48 | 440140 | ||
| SPTM4_TS_DEWT_032014.nc | 27-Oct-2024 21:48 | 440153 | ||
| SPTM4_TS_DEWT_032015.nc | 27-Oct-2024 21:48 | 440218 | ||
| SPTM4_TS_DEWT_032023.nc | 27-Oct-2024 21:48 | 429813 | ||
| SPTM4_TS_DEWT_042010.nc | 27-Oct-2024 21:48 | 428962 | ||
| SPTM4_TS_DEWT_042011.nc | 27-Oct-2024 21:48 | 429831 | ||
| SPTM4_TS_DEWT_042012.nc | 27-Oct-2024 21:49 | 429836 | ||
| SPTM4_TS_DEWT_042013.nc | 27-Oct-2024 21:49 | 588151 | ||
| SPTM4_TS_DEWT_042014.nc | 27-Oct-2024 21:49 | 587959 | ||
| SPTM4_TS_DEWT_042015.nc | 27-Oct-2024 21:49 | 588189 | ||
| SPTM4_TS_DEWT_042023.nc | 27-Oct-2024 21:49 | 440169 | ||
| SPTM4_TS_DEWT_052010.nc | 27-Oct-2024 21:49 | 587996 | ||
| SPTM4_TS_DEWT_052011.nc | 27-Oct-2024 21:49 | 588152 | ||
| SPTM4_TS_DEWT_052012.nc | 27-Oct-2024 21:49 | 588184 | ||
| SPTM4_TS_DEWT_052013.nc | 27-Oct-2024 21:49 | 588104 | ||
| SPTM4_TS_DEWT_052014.nc | 27-Oct-2024 21:49 | 588218 | ||
| SPTM4_TS_DEWT_052015.nc | 27-Oct-2024 21:49 | 588208 | ||
| SPTM4_TS_DEWT_052023.nc | 27-Oct-2024 21:49 | 588100 | ||
| SPTM4_TS_DEWT_062010.nc | 27-Oct-2024 21:49 | 588033 | ||
| SPTM4_TS_DEWT_062011.nc | 27-Oct-2024 21:49 | 588131 | ||
| SPTM4_TS_DEWT_062012.nc | 27-Oct-2024 21:49 | 588166 | ||
| SPTM4_TS_DEWT_062013.nc | 27-Oct-2024 21:49 | 588213 | ||
| SPTM4_TS_DEWT_062014.nc | 27-Oct-2024 21:49 | 588235 | ||
| SPTM4_TS_DEWT_062015.nc | 27-Oct-2024 21:49 | 429451 | ||
| SPTM4_TS_DEWT_062023.nc | 27-Oct-2024 21:50 | 427956 | ||
| SPTM4_TS_DEWT_072010.nc | 27-Oct-2024 21:50 | 429456 | ||
| SPTM4_TS_DEWT_072011.nc | 27-Oct-2024 21:50 | 429450 | ||
| SPTM4_TS_DEWT_072012.nc | 27-Oct-2024 21:50 | 440092 | ||
| SPTM4_TS_DEWT_072013.nc | 27-Oct-2024 21:50 | 439795 | ||
| SPTM4_TS_DEWT_072014.nc | 27-Oct-2024 21:50 | 439473 | ||
| SPTM4_TS_DEWT_072015.nc | 27-Oct-2024 21:50 | 439621 | ||
| SPTM4_TS_DEWT_072023.nc | 27-Oct-2024 21:50 | 440045 | ||
| SPTM4_TS_DEWT_082010.nc | 27-Oct-2024 21:50 | 427163 | ||
| SPTM4_TS_DEWT_082011.nc | 27-Oct-2024 21:50 | 440115 | ||
| SPTM4_TS_DEWT_082012.nc | 27-Oct-2024 21:50 | 440026 | ||
| SPTM4_TS_DEWT_082013.nc | 27-Oct-2024 21:50 | 439671 | ||
| SPTM4_TS_DEWT_082014.nc | 27-Oct-2024 21:50 | 440156 | ||
| SPTM4_TS_DEWT_082023.nc | 27-Oct-2024 21:50 | 439986 | ||
| SPTM4_TS_DEWT_092010.nc | 27-Oct-2024 21:50 | 440155 | ||
| SPTM4_TS_DEWT_092011.nc | 27-Oct-2024 21:50 | 439102 | ||
| SPTM4_TS_DEWT_092012.nc | 27-Oct-2024 21:51 | 440135 | ||
| SPTM4_TS_DEWT_092013.nc | 27-Oct-2024 21:51 | 440169 | ||
| SPTM4_TS_DEWT_092014.nc | 27-Oct-2024 21:51 | 440125 | ||
| SPTM4_TS_DEWT_092023.nc | 27-Oct-2024 21:51 | 429717 | ||
| SPTM4_TS_DEWT_102010.nc | 27-Oct-2024 21:51 | 418799 | ||
| SPTM4_TS_DEWT_102011.nc | 27-Oct-2024 21:51 | 429839 | ||
| SPTM4_TS_DEWT_102012.nc | 27-Oct-2024 21:51 | 427356 | ||
| SPTM4_TS_DEWT_102013.nc | 27-Oct-2024 21:51 | 588166 | ||
| SPTM4_TS_DEWT_102014.nc | 27-Oct-2024 21:51 | 588098 | ||
| SPTM4_TS_DEWT_102015.nc | 27-Oct-2024 21:51 | 439817 | ||
| SPTM4_TS_DEWT_102023.nc | 27-Oct-2024 21:51 | 588083 | ||
| SPTM4_TS_DEWT_112010.nc | 27-Oct-2024 21:51 | 588106 | ||
| SPTM4_TS_DEWT_112011.nc | 27-Oct-2024 21:51 | 430953 | ||
| SPTM4_TS_DEWT_112012.nc | 27-Oct-2024 21:51 | 588175 | ||
| SPTM4_TS_DEWT_112013.nc | 27-Oct-2024 21:51 | 588179 | ||
| SPTM4_TS_DEWT_112014.nc | 27-Oct-2024 21:51 | 588194 | ||
| SPTM4_TS_DEWT_122010.nc | 27-Oct-2024 21:52 | 440264 | ||
| SPTM4_TS_DEWT_122011.nc | 27-Oct-2024 21:52 | 588180 | ||
| SPTM4_TS_DEWT_122012.nc | 27-Oct-2024 21:52 | 588003 | ||
| SPTM4_TS_DEWT_122013.nc | 27-Oct-2024 21:52 | 588208 | ||
| SPTM4_TS_DEWT_122014.nc | 27-Oct-2024 21:52 | 588208 | ||
| SPTM4_TS_DEWT_122023.nc | 16-Sep-2024 16:51 | 728121 | ||